Time,TemperatureF,DewpointF,PressureIn,WindDirection,WindDirectionDegrees,WindSpeedMPH,WindSpeedGustMPH,Humidity,HourlyPrecipIn,Conditions,Clouds,dailyrainin,SoftwareType,DateUTC
2013-10-20 00:00:00,84.5,78.8,29.86,ENE,78,3.0,14.0,83,0.00,,,0.00,VWS V15.00,2013-10-20 06:00:00,
2013-10-20 00:01:00,84.5,78.8,29.86,NE,51,7.0,10.0,83,0.00,,,0.00,VWS V14.01,2013-10-20 06:01:00,
2013-10-20 00:06:00,84.5,78.8,29.86,ESE,105,5.0,14.0,83,0.00,,,0.00,VWS V14.01,2013-10-20 06:06:00,
2013-10-20 00:11:00,84.5,78.8,29.86,NE,49,6.0,14.0,83,0.00,,,0.00,VWS V14.01,2013-10-20 06:11:00,
2013-10-20 00:16:00,84.5,78.8,29.86,East,90,7.0,14.0,83,0.00,,,0.00,VWS V14.01,2013-10-20 06:16:00,
2013-10-20 00:21:00,84.5,78.8,29.86,East,83,6.0,14.0,83,0.00,,,0.00,VWS V14.01,2013-10-20 06:21:00,
2013-10-20 00:26:00,84.4,78.7,29.85,ENE,58,7.0,14.0,83,0.00,,,0.00,VWS V14.01,2013-10-20 06:26:00,
2013-10-20 00:30:00,84.4,78.7,29.85,East,79,5.0,14.0,83,0.00,,,0.00,VWS V15.00,2013-10-20 06:30:00,
2013-10-20 00:31:00,84.4,78.7,29.85,ENE,71,6.0,11.0,83,0.00,,,0.00,VWS V14.01,2013-10-20 06:31:00,
2013-10-20 00:36:00,84.4,78.7,29.84,East,101,8.0,12.0,83,0.00,,,0.00,VWS V14.01,2013-10-20 06:36:00,
2013-10-20 00:41:00,84.3,78.9,29.84,ENE,63,6.0,12.0,84,0.00,,,0.00,VWS V14.01,2013-10-20 06:41:00,
2013-10-20 00:46:00,84.3,78.6,29.84,East,90,5.0,12.0,83,0.00,,,0.00,VWS V14.01,2013-10-20 06:46:00,
2013-10-20 00:51:00,84.3,78.6,29.84,NE,56,8.0,12.0,83,0.00,,,0.00,VWS V14.01,2013-10-20 06:51:00,
2013-10-20 00:56:00,84.3,78.6,29.84,ENE,66,5.0,12.0,83,0.00,,,0.00,VWS V14.01,2013-10-20 06:56:00,
2013-10-20 01:00:00,84.3,78.9,29.83,ENE,74,4.0,12.0,84,0.00,,,0.00,VWS V15.00,2013-10-20 07:00:00,
2013-10-20 01:01:00,84.3,78.9,29.83,NE,56,7.0,7.0,84,0.00,,,0.00,VWS V14.01,2013-10-20 07:01:00,
2013-10-20 01:06:00,84.3,78.9,29.83,East,91,5.0,9.0,84,0.00,,,0.00,VWS V14.01,2013-10-20 07:06:00,
2013-10-20 01:11:00,84.2,78.8,29.83,ENE,59,3.0,10.0,84,0.00,,,0.00,VWS V14.01,2013-10-20 07:11:00,
2013-10-20 01:16:00,84.2,78.8,29.83,NNE,19,9.0,11.0,84,0.00,,,0.00,VWS V14.01,2013-10-20 07:16:00,
2013-10-20 01:21:00,84.2,78.8,29.83,NE,53,3.0,11.0,84,0.00,,,0.00,VWS V14.01,2013-10-20 07:21:00,
2013-10-20 01:26:00,84.2,78.8,29.83,ENE,74,5.0,12.0,84,0.00,,,0.00,VWS V14.01,2013-10-20 07:26:00,
2013-10-20 01:30:00,84.2,78.5,29.83,ENE,65,8.0,12.0,83,0.00,,,0.00,VWS V15.00,2013-10-20 07:30:00,
2013-10-20 01:31:00,84.2,78.5,29.83,ENE,68,5.0,8.0,83,0.00,,,0.00,VWS V14.01,2013-10-20 07:31:00,
2013-10-20 01:36:00,84.2,78.5,29.83,SE,124,3.0,10.0,83,0.00,,,0.00,VWS V14.01,2013-10-20 07:36:00,
2013-10-20 01:41:00,84.2,78.1,29.83,ENE,62,4.0,10.0,82,0.00,,,0.00,VWS V14.01,2013-10-20 07:41:00,
2013-10-20 01:46:00,84.2,78.1,29.83,ENE,68,7.0,10.0,82,0.00,,,0.00,VWS V14.01,2013-10-20 07:46:00,
2013-10-20 01:51:00,84.3,78.9,29.83,NE,39,2.0,10.0,84,0.00,,,0.00,VWS V14.01,2013-10-20 07:51:00,
2013-10-20 01:56:00,84.1,78.8,29.83,ENE,73,7.0,10.0,84,0.00,,,0.00,VWS V14.01,2013-10-20 07:56:00,
2013-10-20 02:00:00,84.1,78.8,29.82,East,99,2.0,10.0,84,0.00,,,0.00,VWS V15.00,2013-10-20 08:00:00,
2013-10-20 02:01:00,84.1,78.8,29.82,ENE,68,3.0,3.0,84,0.00,,,0.00,VWS V14.01,2013-10-20 08:01:00,
2013-10-20 02:06:00,84.1,78.8,29.82,NE,49,4.0,7.0,84,0.00,,,0.00,VWS V14.01,2013-10-20 08:06:00,
2013-10-20 02:11:00,83.9,78.2,29.82,ENE,61,4.0,9.0,83,0.00,,,0.00,VWS V14.01,2013-10-20 08:11:00,
2013-10-20 02:16:00,83.9,78.2,29.82,NE,54,0.0,9.0,83,0.00,,,0.00,VWS V14.01,2013-10-20 08:16:00,
2013-10-20 02:21:00,83.9,78.2,29.82,ENE,72,3.0,9.0,83,0.00,,,0.00,VWS V14.01,2013-10-20 08:21:00,
2013-10-20 02:26:00,83.8,78.1,29.82,NE,56,2.0,9.0,83,0.00,,,0.00,VWS V14.01,2013-10-20 08:26:00,
2013-10-20 02:30:00,83.7,78.0,29.81,NE,45,2.0,9.0,83,0.00,,,0.00,VWS V15.00,2013-10-20 08:30:00,
2013-10-20 02:31:00,83.7,78.0,29.81,NE,50,3.0,3.0,83,0.00,,,0.00,VWS V14.01,2013-10-20 08:31:00,
2013-10-20 02:36:00,83.6,77.9,29.81,NE,41,4.0,5.0,83,0.00,,,0.00,VWS V14.01,2013-10-20 08:36:00,
2013-10-20 02:41:00,83.6,78.3,29.81,NE,45,2.0,5.0,84,0.00,,,0.00,VWS V14.01,2013-10-20 08:41:00,
2013-10-20 02:46:00,83.6,78.3,29.81,ENE,70,3.0,5.0,84,0.00,,,0.00,VWS V14.01,2013-10-20 08:46:00,
2013-10-20 02:51:00,83.5,78.2,29.81,ENE,58,1.0,6.0,84,0.00,,,0.00,VWS V14.01,2013-10-20 08:51:00,
2013-10-20 02:56:00,83.4,78.1,29.81,NE,49,3.0,6.0,84,0.00,,,0.00,VWS V14.01,2013-10-20 08:56:00,
2013-10-20 03:00:00,83.4,78.1,29.82,ENE,72,3.0,6.0,84,0.00,,,0.00,VWS V15.00,2013-10-20 09:00:00,
2013-10-20 03:01:00,83.4,78.1,29.82,ENE,68,3.0,3.0,84,0.00,,,0.00,VWS V14.01,2013-10-20 09:01:00,
2013-10-20 03:06:00,83.3,78.3,29.82,East,82,3.0,7.0,85,0.00,,,0.00,VWS V14.01,2013-10-20 09:06:00,
2013-10-20 03:10:00,83.3,78.3,29.81,NE,41,4.0,7.0,85,0.00,,,0.00,VWS V14.01,2013-10-20 09:10:00,
2013-10-20 03:15:00,83.3,78.0,29.81,NE,49,2.0,7.0,84,0.00,,,0.00,VWS V14.01,2013-10-20 09:15:00,
2013-10-20 03:20:00,83.4,77.7,29.81,NE,56,3.0,9.0,83,0.00,,,0.00,VWS V14.01,2013-10-20 09:20:00,
2013-10-20 03:25:00,83.5,77.8,29.81,NE,54,3.0,9.0,83,0.00,,,0.00,VWS V14.01,2013-10-20 09:25:00,
2013-10-20 03:30:00,83.5,78.2,29.81,ENE,59,1.0,9.0,84,0.00,,,0.00,VWS V14.01,2013-10-20 09:30:00,
2013-10-20 03:35:00,83.4,78.1,29.82,East,88,2.0,5.0,84,0.00,,,0.00,VWS V14.01,2013-10-20 09:35:00,
2013-10-20 03:40:00,83.3,78.0,29.82,ENE,70,3.0,5.0,84,0.00,,,0.00,VWS V14.01,2013-10-20 09:40:00,
2013-10-20 03:45:00,83.3,78.0,29.82,ENE,68,4.0,7.0,84,0.00,,,0.00,VWS V14.01,2013-10-20 09:45:00,
2013-10-20 03:50:00,83.3,78.0,29.82,NE,53,5.0,7.0,84,0.00,,,0.00,VWS V14.01,2013-10-20 09:50:00,
2013-10-20 03:55:00,83.3,78.0,29.82,ENE,58,5.0,8.0,84,0.00,,,0.00,VWS V14.01,2013-10-20 09:55:00,
2013-10-20 04:00:00,83.4,78.1,29.82,East,83,1.0,8.0,84,0.00,,,0.00,VWS V14.01,2013-10-20 10:00:00,
2013-10-20 04:05:00,83.3,78.0,29.82,ENE,68,3.0,6.0,84,0.00,,,0.00,VWS V14.01,2013-10-20 10:05:00,
2013-10-20 04:10:00,83.3,78.0,29.82,ENE,70,1.0,6.0,84,0.00,,,0.00,VWS V14.01,2013-10-20 10:10:00,
2013-10-20 04:15:00,83.2,77.9,29.82,ENE,62,3.0,6.0,84,0.00,,,0.00,VWS V14.01,2013-10-20 10:15:00,
2013-10-20 04:20:00,83.2,78.2,29.83,ENE,58,3.0,6.0,85,0.00,,,0.00,VWS V14.01,2013-10-20 10:20:00,
2013-10-20 04:25:00,83.2,77.9,29.83,NE,51,2.0,6.0,84,0.00,,,0.00,VWS V14.01,2013-10-20 10:25:00,
2013-10-20 04:30:00,83.2,77.9,29.83,ENE,74,2.0,6.0,84,0.00,,,0.00,VWS V14.01,2013-10-20 10:30:00,
2013-10-20 04:35:00,83.4,78.8,29.83,ESE,115,0.0,4.0,86,0.00,,,0.00,VWS V14.01,2013-10-20 10:35:00,
2013-10-20 04:40:00,83.2,78.2,29.83,NE,51,1.0,4.0,85,0.00,,,0.00,VWS V14.01,2013-10-20 10:40:00,
2013-10-20 04:45:00,83.1,78.1,29.84,ENE,72,1.0,4.0,85,0.00,,,0.00,VWS V14.01,2013-10-20 10:45:00,
2013-10-20 04:50:00,83.0,77.7,29.84,NE,54,1.0,4.0,84,0.00,,,0.00,VWS V14.01,2013-10-20 10:50:00,
2013-10-20 04:55:00,83.0,78.0,29.84,East,89,1.0,4.0,85,0.00,,,0.00,VWS V14.01,2013-10-20 10:55:00,
2013-10-20 05:00:00,82.9,77.6,29.84,ENE,64,0.0,4.0,84,0.00,,,0.00,VWS V14.01,2013-10-20 11:00:00,
2013-10-20 05:05:00,82.8,77.1,29.84,ENE,60,1.0,2.0,83,0.00,,,0.00,VWS V14.01,2013-10-20 11:05:00,
2013-10-20 05:10:00,82.8,76.8,29.85,ENE,62,3.0,3.0,82,0.00,,,0.00,VWS V14.01,2013-10-20 11:10:00,
2013-10-20 05:15:00,82.9,76.8,29.85,ENE,65,1.0,3.0,82,0.00,,,0.00,VWS V14.01,2013-10-20 11:15:00,
2013-10-20 05:20:00,82.8,76.8,29.85,ENE,69,0.0,3.0,82,0.00,,,0.00,VWS V14.01,2013-10-20 11:20:00,
2013-10-20 05:25:00,82.8,76.8,29.85,NNE,26,0.0,3.0,82,0.00,,,0.00,VWS V14.01,2013-10-20 11:25:00,
2013-10-20 05:30:00,82.5,76.4,29.85,NNE,26,0.0,3.0,82,0.00,,,0.00,VWS V14.01,2013-10-20 11:30:00,
2013-10-20 05:35:00,82.2,76.5,29.85,NNE,26,0.0,1.0,83,0.00,,,0.00,VWS V14.01,2013-10-20 11:35:00,
2013-10-20 05:40:00,82.1,76.4,29.85,NE,56,0.0,1.0,83,0.00,,,0.00,VWS V14.01,2013-10-20 11:40:00,
2013-10-20 05:45:00,82.1,76.8,29.86,ENE,60,0.0,1.0,84,0.00,,,0.00,VWS V14.01,2013-10-20 11:45:00,
2013-10-20 05:50:00,82.1,76.8,29.86,NE,53,0.0,1.0,84,0.00,,,0.00,VWS V14.01,2013-10-20 11:50:00,
2013-10-20 05:55:00,82.4,77.8,29.86,WSW,242,0.0,1.0,86,0.00,,,0.00,VWS V14.01,2013-10-20 11:55:00,
2013-10-20 06:00:00,82.9,78.6,29.86,South,170,1.0,2.0,87,0.00,,,0.00,VWS V14.01,2013-10-20 12:00:00,
2013-10-20 06:05:00,83.4,78.8,29.86,SSE,155,2.0,3.0,86,0.00,,,0.00,VWS V14.01,2013-10-20 12:05:00,
2013-10-20 06:10:00,84.1,79.1,29.86,SSE,155,1.0,3.0,85,0.00,,,0.00,VWS V14.01,2013-10-20 12:10:00,
2013-10-20 06:15:00,84.5,78.8,29.87,SE,129,2.0,3.0,83,0.00,,,0.00,VWS V14.01,2013-10-20 12:15:00,
2013-10-20 06:20:00,84.8,78.7,29.86,SSW,193,3.0,3.0,82,0.00,,,0.00,VWS V14.01,2013-10-20 12:20:00,
2013-10-20 06:25:00,85.0,78.9,29.87,South,169,1.0,3.0,82,0.00,,,0.00,VWS V14.01,2013-10-20 12:25:00,
2013-10-20 06:30:00,85.4,79.3,29.87,SE,139,0.0,3.0,82,0.00,,,0.00,VWS V14.01,2013-10-20 12:30:00,
2013-10-20 06:35:00,85.8,78.9,29.87,South,172,0.0,3.0,80,0.00,,,0.00,VWS V14.01,2013-10-20 12:35:00,
2013-10-20 06:40:00,86.1,79.2,29.87,ESE,122,2.0,3.0,80,0.00,,,0.00,VWS V14.01,2013-10-20 12:40:00,
2013-10-20 06:45:00,86.0,78.7,29.87,ESE,121,1.0,3.0,79,0.00,,,0.00,VWS V14.01,2013-10-20 12:45:00,
2013-10-20 06:50:00,85.9,79.0,29.87,ESE,105,1.0,3.0,80,0.00,,,0.00,VWS V14.01,2013-10-20 12:50:00,
2013-10-20 06:55:00,85.9,79.0,29.87,ESE,120,1.0,3.0,80,0.00,,,0.00,VWS V14.01,2013-10-20 12:55:00,
2013-10-20 07:00:00,85.4,78.9,29.88,East,86,3.0,5.0,81,0.00,,,0.00,VWS V14.01,2013-10-20 13:00:00,
2013-10-20 07:05:00,85.1,79.7,29.88,SE,136,3.0,6.0,84,0.00,,,0.00,VWS V14.01,2013-10-20 13:05:00,
2013-10-20 07:10:00,85.1,80.1,29.88,SE,125,4.0,7.0,85,0.00,,,0.00,VWS V14.01,2013-10-20 13:10:00,
2013-10-20 07:15:00,85.9,80.5,29.88,ESE,116,2.0,7.0,84,0.00,,,0.00,VWS V14.01,2013-10-20 13:15:00,
2013-10-20 07:20:00,86.4,80.3,29.88,SE,137,3.0,7.0,82,0.00,,,0.00,VWS V14.01,2013-10-20 13:20:00,
2013-10-20 07:25:00,86.4,80.3,29.89,SE,139,4.0,7.0,82,0.00,,,0.00,VWS V14.01,2013-10-20 13:25:00,
2013-10-20 07:30:00,86.1,80.0,29.89,South,190,8.0,8.0,82,0.00,,,0.00,VWS V14.01,2013-10-20 13:30:00,
2013-10-20 07:35:00,85.9,80.1,29.89,SE,139,5.0,7.0,83,0.00,,,0.00,VWS V14.01,2013-10-20 13:35:00,
2013-10-20 07:40:00,86.3,79.8,29.89,SSE,150,2.0,7.0,81,0.00,,,0.00,VWS V14.01,2013-10-20 13:40:00,
2013-10-20 07:45:00,86.9,80.4,29.89,SE,128,5.0,7.0,81,0.00,,,0.00,VWS V14.01,2013-10-20 13:45:00,
2013-10-20 07:50:00,86.3,79.8,29.89,SSW,205,4.0,7.0,81,0.00,,,0.00,VWS V14.01,2013-10-20 13:50:00,
2013-10-20 07:55:00,86.1,79.6,29.89,South,184,1.0,7.0,81,0.00,,,0.00,VWS V14.01,2013-10-20 13:55:00,
2013-10-20 08:00:00,87.3,80.4,29.90,SSE,149,3.0,7.0,80,0.00,,,0.00,VWS V14.01,2013-10-20 14:00:00,
2013-10-20 08:05:00,88.4,80.7,29.90,ESE,117,3.0,4.0,78,0.00,,,0.00,VWS V14.01,2013-10-20 14:05:00,
2013-10-20 08:10:00,88.3,80.2,29.90,SSE,148,3.0,5.0,77,0.00,,,0.00,VWS V14.01,2013-10-20 14:10:00,
2013-10-20 08:15:00,88.5,80.4,29.90,SSE,155,3.0,5.0,77,0.00,,,0.00,VWS V14.01,2013-10-20 14:15:00,
2013-10-20 08:20:00,88.8,80.7,29.90,ESE,117,4.0,6.0,77,0.00,,,0.00,VWS V14.01,2013-10-20 14:20:00,
2013-10-20 08:25:00,88.4,80.3,29.90,SSE,162,3.0,6.0,77,0.00,,,0.00,VWS V14.01,2013-10-20 14:25:00,
2013-10-20 08:30:00,88.7,80.6,29.90,SE,136,3.0,6.0,77,0.00,,,0.00,VWS V14.01,2013-10-20 14:30:00,
2013-10-20 08:35:00,88.6,80.1,29.90,SE,126,4.0,5.0,76,0.00,,,0.00,VWS V14.01,2013-10-20 14:35:00,
2013-10-20 08:40:00,88.6,80.5,29.90,SE,128,6.0,6.0,77,0.00,,,0.00,VWS V14.01,2013-10-20 14:40:00,
2013-10-20 08:45:00,88.5,80.4,29.91,SSE,153,2.0,6.0,77,0.00,,,0.00,VWS V14.01,2013-10-20 14:45:00,
2013-10-20 08:50:00,88.9,79.9,29.91,SE,131,2.0,6.0,75,0.00,,,0.00,VWS V14.01,2013-10-20 14:50:00,
2013-10-20 08:55:00,89.6,80.6,29.90,ESE,117,1.0,6.0,75,0.00,,,0.00,VWS V14.01,2013-10-20 14:55:00,
2013-10-20 09:00:00,88.8,79.4,29.91,SSE,149,1.0,6.0,74,0.00,,,0.00,VWS V14.01,2013-10-20 15:00:00,
2013-10-20 09:05:00,89.2,79.4,29.91,SE,146,2.0,3.0,73,0.00,,,0.00,VWS V14.01,2013-10-20 15:05:00,
2013-10-20 09:10:00,90.2,80.4,29.91,East,93,2.0,3.0,73,0.00,,,0.00,VWS V14.01,2013-10-20 15:10:00,
2013-10-20 09:15:00,90.2,79.5,29.91,South,173,2.0,4.0,71,0.00,,,0.00,VWS V14.01,2013-10-20 15:15:00,
2013-10-20 09:20:00,90.0,79.8,29.91,ESE,114,2.0,4.0,72,0.00,,,0.00,VWS V14.01,2013-10-20 15:20:00,
2013-10-20 09:25:00,90.9,80.2,29.91,East,99,2.0,4.0,71,0.00,,,0.00,VWS V14.01,2013-10-20 15:25:00,
2013-10-20 09:30:00,91.2,80.1,29.91,SSE,160,3.0,4.0,70,0.00,,,0.00,VWS V14.01,2013-10-20 15:30:00,
2013-10-20 09:35:00,91.2,79.6,29.91,SE,146,0.0,3.0,69,0.00,,,0.00,VWS V14.01,2013-10-20 15:35:00,
2013-10-20 09:40:00,91.2,79.2,29.90,SSW,201,2.0,3.0,68,0.00,,,0.00,VWS V14.01,2013-10-20 15:40:00,
2013-10-20 09:45:00,90.7,79.1,29.90,SW,220,2.0,3.0,69,0.00,,,0.00,VWS V14.01,2013-10-20 15:45:00,
2013-10-20 09:50:00,91.0,79.9,29.90,South,179,1.0,4.0,70,0.00,,,0.00,VWS V14.01,2013-10-20 15:50:00,
2013-10-20 09:55:00,90.4,78.8,29.91,SSW,201,1.0,4.0,69,0.00,,,0.00,VWS V14.01,2013-10-20 15:55:00,
2013-10-20 10:00:00,89.9,79.2,29.90,SSW,195,1.0,4.0,71,0.00,,,0.00,VWS V14.01,2013-10-20 16:00:00,
2013-10-20 10:05:00,90.4,79.3,29.90,South,183,1.0,3.0,70,0.00,,,0.00,VWS V14.01,2013-10-20 16:05:00,
2013-10-20 10:10:00,90.4,79.3,29.90,SSW,208,1.0,3.0,70,0.00,,,0.00,VWS V14.01,2013-10-20 16:10:00,
2013-10-20 10:15:00,91.1,79.9,29.90,SSE,163,2.0,3.0,70,0.00,,,0.00,VWS V14.01,2013-10-20 16:15:00,
2013-10-20 10:20:00,91.6,79.6,29.90,SSE,155,0.0,3.0,68,0.00,,,0.00,VWS V14.01,2013-10-20 16:20:00,
2013-10-20 10:25:00,92.0,79.5,29.90,ESE,110,2.0,3.0,67,0.00,,,0.00,VWS V14.01,2013-10-20 16:25:00,
2013-10-20 10:30:00,91.8,78.8,29.90,South,181,2.0,4.0,66,0.00,,,0.00,VWS V14.01,2013-10-20 16:30:00,
2013-10-20 10:35:00,90.8,77.9,29.90,ESE,120,3.0,6.0,66,0.00,,,0.00,VWS V14.01,2013-10-20 16:35:00,
2013-10-20 10:36:00,90.6,77.7,29.90,SE,139,1.0,6.0,66,0.00,,,0.00,VWS V14.01,2013-10-20 16:36:00,
2013-10-20 10:41:00,91.1,79.5,29.89,SE,142,3.0,6.0,69,0.00,,,0.00,VWS V14.01,2013-10-20 16:41:00,
2013-10-20 10:46:00,91.6,79.6,29.89,East,86,3.0,6.0,68,0.00,,,0.00,VWS V14.01,2013-10-20 16:46:00,
2013-10-20 10:51:00,90.7,79.1,29.89,East,96,4.0,8.0,69,0.00,,,0.00,VWS V14.01,2013-10-20 16:51:00,
2013-10-20 10:56:00,89.7,78.6,29.89,SE,124,2.0,8.0,70,0.00,,,0.00,VWS V14.01,2013-10-20 16:56:00,
2013-10-20 11:00:00,89.4,77.4,29.89,ESE,110,2.0,8.0,68,0.00,,,0.00,VWS V15.00,2013-10-20 17:00:00,
2013-10-20 11:01:00,89.4,77.4,29.89,SE,128,2.0,2.0,68,0.00,,,0.00,VWS V14.01,2013-10-20 17:01:00,
2013-10-20 11:06:00,89.8,77.8,29.89,ESE,115,3.0,5.0,68,0.00,,,0.00,VWS V14.01,2013-10-20 17:06:00,
2013-10-20 11:11:00,91.0,79.4,29.88,SSE,160,3.0,5.0,69,0.00,,,0.00,VWS V14.01,2013-10-20 17:11:00,
2013-10-20 11:16:00,91.6,78.6,29.88,SSE,155,2.0,5.0,66,0.00,,,0.00,VWS V14.01,2013-10-20 17:16:00,
2013-10-20 11:21:00,91.1,78.6,29.88,SE,140,2.0,5.0,67,0.00,,,0.00,VWS V14.01,2013-10-20 17:21:00,
2013-10-20 11:26:00,90.7,78.2,29.87,South,174,0.0,5.0,67,0.00,,,0.00,VWS V14.01,2013-10-20 17:26:00,
2013-10-20 11:30:00,91.3,78.3,29.87,SSE,163,1.0,5.0,66,0.00,,,0.00,VWS V15.00,2013-10-20 17:30:00,
2013-10-20 11:31:00,91.4,78.4,29.87,ESE,113,1.0,2.0,66,0.00,,,0.00,VWS V14.01,2013-10-20 17:31:00,
2013-10-20 11:36:00,92.0,78.6,29.87,SE,146,1.0,3.0,65,0.00,,,0.00,VWS V14.01,2013-10-20 17:36:00,
2013-10-20 11:41:00,91.8,78.8,29.87,ESE,114,2.0,4.0,66,0.00,,,0.00,VWS V14.01,2013-10-20 17:41:00,
2013-10-20 11:46:00,92.4,78.5,29.86,SE,139,1.0,4.0,64,0.00,,,0.00,VWS V14.01,2013-10-20 17:46:00,
2013-10-20 11:51:00,92.5,78.6,29.86,South,173,3.0,4.0,64,0.00,,,0.00,VWS V14.01,2013-10-20 17:51:00,
2013-10-20 11:56:00,93.3,78.8,29.85,ESE,117,0.0,4.0,63,0.00,,,0.00,VWS V14.01,2013-10-20 17:56:00,
2013-10-20 12:00:00,94.1,79.1,29.85,SSE,150,1.0,4.0,62,0.00,,,0.00,VWS V15.00,2013-10-20 18:00:00,
2013-10-20 12:01:00,94.1,79.1,29.85,East,85,1.0,1.0,62,0.00,,,0.00,VWS V14.01,2013-10-20 18:01:00,
2013-10-20 12:06:00,94.5,79.5,29.85,SSE,158,2.0,3.0,62,0.00,,,0.00,VWS V14.01,2013-10-20 18:06:00,
2013-10-20 12:11:00,94.0,78.5,29.84,ESE,115,3.0,4.0,61,0.00,,,0.00,VWS V14.01,2013-10-20 18:11:00,
2013-10-20 12:16:00,94.0,78.5,29.84,SSW,203,1.0,4.0,61,0.00,,,0.00,VWS V14.01,2013-10-20 18:16:00,
2013-10-20 12:21:00,92.6,78.2,29.84,SSW,205,3.0,4.0,63,0.00,,,0.00,VWS V14.01,2013-10-20 18:21:00,
2013-10-20 12:26:00,91.0,77.6,29.84,WNW,286,2.0,4.0,65,0.00,,,0.00,VWS V14.01,2013-10-20 18:26:00,
2013-10-20 12:30:00,90.8,77.4,29.84,West,262,0.0,4.0,65,0.00,,,0.00,VWS V15.00,2013-10-20 18:30:00,
2013-10-20 12:31:00,90.8,77.4,29.84,NNE,12,4.0,4.0,65,0.00,,,0.00,VWS V14.01,2013-10-20 18:31:00,
2013-10-20 12:36:00,90.4,77.5,29.83,NE,37,1.0,7.0,66,0.00,,,0.00,VWS V14.01,2013-10-20 18:36:00,
2013-10-20 12:41:00,90.2,77.8,29.83,North,351,3.0,9.0,67,0.00,,,0.00,VWS V14.01,2013-10-20 18:41:00,
2013-10-20 12:46:00,90.6,77.2,29.83,NW,315,4.0,9.0,65,0.00,,,0.00,VWS V14.01,2013-10-20 18:46:00,
2013-10-20 12:51:00,90.4,77.5,29.83,NW,314,5.0,9.0,66,0.00,,,0.00,VWS V14.01,2013-10-20 18:51:00,
2013-10-20 12:56:00,90.5,77.6,29.83,WNW,293,3.0,9.0,66,0.00,,,0.00,VWS V14.01,2013-10-20 18:56:00,
2013-10-20 13:00:00,90.9,77.5,29.83,WNW,300,5.0,9.0,65,0.00,,,0.00,VWS V15.00,2013-10-20 19:00:00,
2013-10-20 13:01:00,90.8,77.4,29.82,WNW,295,4.0,4.0,65,0.00,,,0.00,VWS V14.01,2013-10-20 19:01:00,
2013-10-20 13:06:00,90.4,77.5,29.82,North,351,1.0,7.0,66,0.00,,,0.00,VWS V14.01,2013-10-20 19:06:00,
2013-10-20 13:11:00,90.6,78.1,29.82,WNW,300,6.0,8.0,67,0.00,,,0.00,VWS V14.01,2013-10-20 19:11:00,
2013-10-20 13:16:00,90.1,77.2,29.82,NW,318,6.0,8.0,66,0.00,,,0.00,VWS V14.01,2013-10-20 19:16:00,
2013-10-20 13:21:00,90.0,78.5,29.82,North,5,3.0,8.0,69,0.00,,,0.00,VWS V14.01,2013-10-20 19:21:00,
2013-10-20 13:26:00,90.4,78.4,29.81,West,281,0.0,8.0,68,0.00,,,0.00,VWS V14.01,2013-10-20 19:26:00,
2013-10-20 13:30:00,89.8,77.4,29.81,NNE,12,1.0,9.0,67,0.00,,,0.00,VWS V15.00,2013-10-20 19:30:00,
2013-10-20 13:31:00,89.8,77.8,29.81,NNE,12,0.0,1.0,68,0.00,,,0.00,VWS V14.01,2013-10-20 19:31:00,
2013-10-20 13:36:00,90.1,77.7,29.81,NNW,328,0.0,7.0,67,0.00,,,0.00,VWS V14.01,2013-10-20 19:36:00,
2013-10-20 13:41:00,90.3,78.3,29.81,NW,325,3.0,7.0,68,0.00,,,0.00,VWS V14.01,2013-10-20 19:41:00,
2013-10-20 13:46:00,90.2,78.7,29.81,NW,308,5.0,8.0,69,0.00,,,0.00,VWS V14.01,2013-10-20 19:46:00,
2013-10-20 13:51:00,89.5,78.4,29.80,WNW,285,1.0,8.0,70,0.00,,,0.00,VWS V14.01,2013-10-20 19:51:00,
2013-10-20 13:56:00,89.8,78.3,29.80,SE,142,1.0,8.0,69,0.00,,,0.00,VWS V14.01,2013-10-20 19:56:00,
2013-10-20 14:00:00,89.6,78.5,29.80,ENE,66,3.0,8.0,70,0.00,,,0.00,VWS V15.00,2013-10-20 20:00:00,
2013-10-20 14:01:00,89.6,78.5,29.80,ENE,65,2.0,2.0,70,0.00,,,0.00,VWS V14.01,2013-10-20 20:01:00,
2013-10-20 14:06:00,89.4,78.3,29.80,North,357,2.0,8.0,70,0.00,,,0.00,VWS V14.01,2013-10-20 20:06:00,
2013-10-20 14:11:00,88.9,77.0,29.80,NE,53,5.0,10.0,68,0.00,,,0.00,VWS V14.01,2013-10-20 20:11:00,
2013-10-20 14:16:00,88.2,77.2,29.80,ENE,70,2.0,10.0,70,0.00,,,0.00,VWS V14.01,2013-10-20 20:16:00,
2013-10-20 14:20:00,88.5,77.0,29.80,NE,54,9.0,12.0,69,0.00,,,0.00,VWS V14.01,2013-10-20 20:20:00,
2013-10-20 14:25:00,87.9,76.5,29.80,ENE,72,3.0,12.0,69,0.00,,,0.00,VWS V14.01,2013-10-20 20:25:00,
2013-10-20 14:30:00,88.2,77.2,29.80,ENE,60,1.0,12.0,70,0.00,,,0.00,VWS V14.01,2013-10-20 20:30:00,
2013-10-20 14:35:00,87.8,76.4,29.80,ENE,67,6.0,13.0,69,0.00,,,0.00,VWS V14.01,2013-10-20 20:35:00,
2013-10-20 14:40:00,87.8,77.7,29.80,East,94,3.0,13.0,72,0.00,,,0.00,VWS V14.01,2013-10-20 20:40:00,
2013-10-20 14:45:00,88.1,77.1,29.80,NNE,13,3.0,13.0,70,0.00,,,0.00,VWS V14.01,2013-10-20 20:45:00,
2013-10-20 14:50:00,87.8,76.8,29.80,NE,44,3.0,13.0,70,0.00,,,0.00,VWS V14.01,2013-10-20 20:50:00,
2013-10-20 14:55:00,88.4,76.9,29.80,NE,49,4.0,13.0,69,0.00,,,0.00,VWS V14.01,2013-10-20 20:55:00,
2013-10-20 15:00:00,88.5,77.0,29.80,North,349,4.0,13.0,69,0.00,,,0.00,VWS V14.01,2013-10-20 21:00:00,
2013-10-20 15:05:00,88.5,76.6,29.80,ENE,68,4.0,10.0,68,0.00,,,0.00,VWS V14.01,2013-10-20 21:05:00,
2013-10-20 15:10:00,88.6,77.1,29.79,NNW,341,1.0,11.0,69,0.00,,,0.00,VWS V14.01,2013-10-20 21:10:00,
2013-10-20 15:15:00,88.6,77.1,29.80,NE,36,2.0,11.0,69,0.00,,,0.00,VWS V14.01,2013-10-20 21:15:00,
2013-10-20 15:20:00,88.6,76.7,29.80,NE,47,6.0,11.0,68,0.00,,,0.00,VWS V14.01,2013-10-20 21:20:00,
2013-10-20 15:25:00,88.6,77.6,29.80,ENE,77,3.0,11.0,70,0.00,,,0.00,VWS V14.01,2013-10-20 21:25:00,
2013-10-20 15:30:00,88.6,77.1,29.80,NNE,15,3.0,11.0,69,0.00,,,0.00,VWS V14.01,2013-10-20 21:30:00,
2013-10-20 15:35:00,88.4,76.9,29.80,NE,40,6.0,11.0,69,0.00,,,0.00,VWS V14.01,2013-10-20 21:35:00,
2013-10-20 15:40:00,87.9,76.5,29.80,NE,52,4.0,11.0,69,0.00,,,0.00,VWS V14.01,2013-10-20 21:40:00,
2013-10-20 15:45:00,87.9,76.9,29.80,ENE,70,3.0,11.0,70,0.00,,,0.00,VWS V14.01,2013-10-20 21:45:00,
2013-10-20 15:50:00,87.9,76.9,29.80,NNE,20,2.0,11.0,70,0.00,,,0.00,VWS V14.01,2013-10-20 21:50:00,
2013-10-20 15:55:00,87.8,77.2,29.80,NNE,30,3.0,11.0,71,0.00,,,0.00,VWS V14.01,2013-10-20 21:55:00,
2013-10-20 16:00:00,87.8,77.2,29.80,ENE,58,5.0,11.0,71,0.00,,,0.00,VWS V14.01,2013-10-20 22:00:00,
2013-10-20 16:05:00,87.9,76.9,29.80,NE,39,8.0,9.0,70,0.00,,,0.00,VWS V14.01,2013-10-20 22:05:00,
2013-10-20 16:10:00,87.8,76.8,29.80,East,86,6.0,9.0,70,0.00,,,0.00,VWS V14.01,2013-10-20 22:10:00,
2013-10-20 16:15:00,87.8,76.8,29.80,ENE,77,4.0,12.0,70,0.00,,,0.00,VWS V14.01,2013-10-20 22:15:00,
2013-10-20 16:20:00,87.7,77.1,29.80,NE,49,5.0,12.0,71,0.00,,,0.00,VWS V14.01,2013-10-20 22:20:00,
2013-10-20 16:25:00,87.7,77.1,29.80,NNE,32,9.0,12.0,71,0.00,,,0.00,VWS V14.01,2013-10-20 22:25:00,
2013-10-20 16:30:00,87.5,77.4,29.80,ENE,68,6.0,12.0,72,0.00,,,0.00,VWS V14.01,2013-10-20 22:30:00,
2013-10-20 16:35:00,87.3,77.2,29.80,ENE,72,2.0,12.0,72,0.00,,,0.00,VWS V14.01,2013-10-20 22:35:00,
2013-10-20 16:40:00,87.2,77.5,29.81,ENE,63,7.0,12.0,73,0.00,,,0.00,VWS V14.01,2013-10-20 22:40:00,
2013-10-20 16:45:00,87.0,77.3,29.81,ENE,75,7.0,12.0,73,0.00,,,0.00,VWS V14.01,2013-10-20 22:45:00,
2013-10-20 16:50:00,86.9,78.0,29.81,ENE,60,4.0,12.0,75,0.00,,,0.00,VWS V14.01,2013-10-20 22:50:00,
2013-10-20 16:55:00,86.9,78.4,29.81,ENE,59,4.0,12.0,76,0.00,,,0.00,VWS V14.01,2013-10-20 22:55:00,
2013-10-20 17:00:00,86.6,78.5,29.81,East,94,7.0,12.0,77,0.00,,,0.00,VWS V14.01,2013-10-20 23:00:00,
2013-10-20 17:05:00,86.4,78.3,29.82,NE,50,3.0,13.0,77,0.00,,,0.00,VWS V14.01,2013-10-20 23:05:00,
2013-10-20 17:10:00,86.2,78.5,29.82,ENE,68,10.0,13.0,78,0.00,,,0.00,VWS V14.01,2013-10-20 23:10:00,
2013-10-20 17:15:00,86.0,78.3,29.83,East,98,9.0,13.0,78,0.00,,,0.00,VWS V14.01,2013-10-20 23:15:00,
2013-10-20 17:20:00,85.9,78.6,29.83,East,89,8.0,13.0,79,0.00,,,0.00,VWS V14.01,2013-10-20 23:20:00,
2013-10-20 17:25:00,85.8,77.4,29.83,NE,52,10.0,17.0,76,0.00,,,0.00,VWS V14.01,2013-10-20 23:25:00,
2013-10-20 17:30:00,85.7,77.7,29.83,NE,42,7.0,17.0,77,0.00,,,0.00,VWS V14.01,2013-10-20 23:30:00,
2013-10-20 17:35:00,85.7,78.1,29.83,ENE,61,7.0,13.0,78,0.00,,,0.00,VWS V14.01,2013-10-20 23:35:00,
2013-10-20 17:40:00,85.7,77.7,29.83,NE,44,10.0,15.0,77,0.00,,,0.00,VWS V14.01,2013-10-20 23:40:00,
2013-10-20 17:45:00,85.6,77.6,29.83,NE,46,8.0,15.0,77,0.00,,,0.00,VWS V14.01,2013-10-20 23:45:00,
2013-10-20 17:50:00,85.6,78.0,29.84,NE,51,13.0,18.0,78,0.00,,,0.00,VWS V14.01,2013-10-20 23:50:00,
2013-10-20 17:55:00,85.6,78.0,29.84,East,79,5.0,18.0,78,0.00,,,0.00,VWS V14.01,2013-10-20 23:55:00,
2013-10-20 18:00:00,85.6,78.3,29.84,ENE,73,6.0,18.0,79,0.00,,,0.00,VWS V14.01,2013-10-21 00:00:00,
2013-10-20 18:05:00,85.6,78.0,29.84,NE,41,8.0,14.0,78,0.00,,,0.00,VWS V14.01,2013-10-21 00:05:00,
2013-10-20 18:10:00,85.6,77.6,29.84,ENE,78,3.0,16.0,77,0.00,,,0.00,VWS V14.01,2013-10-21 00:10:00,
2013-10-20 18:15:00,85.6,77.6,29.85,ENE,70,10.0,16.0,77,0.00,,,0.00,VWS V14.01,2013-10-21 00:15:00,
2013-10-20 18:20:00,85.6,78.0,29.85,ENE,68,13.0,17.0,78,0.00,,,0.00,VWS V14.01,2013-10-21 00:20:00,
2013-10-20 18:25:00,85.5,77.9,29.85,NE,47,13.0,18.0,78,0.00,,,0.00,VWS V14.01,2013-10-21 00:25:00,
2013-10-20 18:30:00,85.5,78.2,29.85,NE,54,9.0,18.0,79,0.00,,,0.00,VWS V14.01,2013-10-21 00:30:00,
2013-10-20 18:35:00,85.4,77.8,29.85,NE,45,9.0,15.0,78,0.00,,,0.00,VWS V14.01,2013-10-21 00:35:00,
2013-10-20 18:40:00,85.5,78.6,29.85,ENE,63,5.0,15.0,80,0.00,,,0.00,VWS V14.01,2013-10-21 00:40:00,
2013-10-20 18:45:00,85.4,78.2,29.86,NE,41,9.0,17.0,79,0.00,,,0.00,VWS V14.01,2013-10-21 00:45:00,
2013-10-20 18:50:00,85.5,77.9,29.86,NNW,346,7.0,18.0,78,0.00,,,0.00,VWS V14.01,2013-10-21 00:50:00,
2013-10-20 18:55:00,85.5,77.9,29.86,ENE,63,9.0,18.0,78,0.00,,,0.00,VWS V14.01,2013-10-21 00:55:00,
2013-10-20 19:00:00,85.5,78.2,29.86,ENE,64,7.0,20.0,79,0.00,,,0.00,VWS V14.01,2013-10-21 01:00:00,
2013-10-20 19:05:00,85.5,78.2,29.86,NE,53,7.0,14.0,79,0.00,,,0.00,VWS V14.01,2013-10-21 01:05:00,
2013-10-20 19:10:00,85.5,78.2,29.86,NE,41,9.0,18.0,79,0.00,,,0.00,VWS V14.01,2013-10-21 01:10:00,
2013-10-20 19:15:00,85.5,78.6,29.86,ENE,64,13.0,18.0,80,0.00,,,0.00,VWS V14.01,2013-10-21 01:15:00,
2013-10-20 19:20:00,85.4,78.5,29.86,NE,54,7.0,18.0,80,0.00,,,0.00,VWS V14.01,2013-10-21 01:20:00,
2013-10-20 19:25:00,85.4,78.5,29.86,NE,50,11.0,22.0,80,0.00,,,0.00,VWS V14.01,2013-10-21 01:25:00,
2013-10-20 19:30:00,85.4,78.9,29.86,ENE,74,11.0,22.0,81,0.00,,,0.00,VWS V14.01,2013-10-21 01:30:00,
2013-10-20 19:35:00,85.4,78.9,29.86,East,79,6.0,19.0,81,0.00,,,0.00,VWS V14.01,2013-10-21 01:35:00,
2013-10-20 19:40:00,85.4,79.3,29.86,NE,49,6.0,19.0,82,0.00,,,0.00,VWS V14.01,2013-10-21 01:40:00,
2013-10-20 19:45:00,85.3,78.8,29.86,East,90,9.0,19.0,81,0.00,,,0.00,VWS V14.01,2013-10-21 01:45:00,
2013-10-20 19:50:00,85.0,78.1,29.86,East,101,10.0,19.0,80,0.00,,,0.00,VWS V14.01,2013-10-21 01:50:00,
2013-10-20 19:55:00,84.7,77.8,29.87,ENE,59,4.0,19.0,80,0.00,,,0.00,VWS V14.01,2013-10-21 01:55:00,
2013-10-20 20:00:00,84.3,77.5,29.87,NE,53,4.0,19.0,80,0.00,,,0.00,VWS V14.01,2013-10-21 02:00:00,
2013-10-20 20:05:00,84.2,77.0,29.87,NE,53,7.0,9.0,79,0.00,,,0.00,VWS V14.01,2013-10-21 02:05:00,
2013-10-20 20:10:00,84.2,77.0,29.87,ENE,66,8.0,10.0,79,0.00,,,0.00,VWS V14.01,2013-10-21 02:10:00,
2013-10-20 20:15:00,84.3,77.5,29.87,East,90,3.0,10.0,80,0.00,,,0.00,VWS V14.01,2013-10-21 02:15:00,
2013-10-20 20:20:00,84.2,77.0,29.88,NE,53,7.0,10.0,79,0.00,,,0.00,VWS V14.01,2013-10-21 02:20:00,
2013-10-20 20:25:00,84.3,77.1,29.88,NE,49,2.0,10.0,79,0.00,,,0.00,VWS V14.01,2013-10-21 02:25:00,
2013-10-20 20:30:00,84.4,77.2,29.88,East,90,6.0,10.0,79,0.00,,,0.00,VWS V14.01,2013-10-21 02:30:00,
2013-10-20 20:35:00,84.4,76.8,29.88,ENE,72,4.0,8.0,78,0.00,,,0.00,VWS V14.01,2013-10-21 02:35:00,
2013-10-20 20:40:00,84.4,77.2,29.88,ENE,68,2.0,8.0,79,0.00,,,0.00,VWS V14.01,2013-10-21 02:40:00,
2013-10-20 20:45:00,84.3,76.7,29.88,ENE,70,3.0,9.0,78,0.00,,,0.00,VWS V14.01,2013-10-21 02:45:00,
2013-10-20 20:50:00,84.3,76.3,29.88,ENE,74,3.0,9.0,77,0.00,,,0.00,VWS V14.01,2013-10-21 02:50:00,
2013-10-20 20:55:00,84.2,76.6,29.88,NE,51,8.0,9.0,78,0.00,,,0.00,VWS V14.01,2013-10-21 02:55:00,
2013-10-20 21:00:00,84.1,76.5,29.88,ENE,63,3.0,10.0,78,0.00,,,0.00,VWS V14.01,2013-10-21 03:00:00,
2013-10-20 21:05:00,84.0,76.4,29.88,NE,47,3.0,8.0,78,0.00,,,0.00,VWS V14.01,2013-10-21 03:05:00,
2013-10-20 21:10:00,84.0,76.8,29.88,NE,49,7.0,8.0,79,0.00,,,0.00,VWS V14.01,2013-10-21 03:10:00,
2013-10-20 21:15:00,83.9,76.7,29.88,ENE,64,5.0,9.0,79,0.00,,,0.00,VWS V14.01,2013-10-21 03:15:00,
2013-10-20 21:20:00,83.9,77.1,29.88,ENE,61,6.0,9.0,80,0.00,,,0.00,VWS V14.01,2013-10-21 03:20:00,
2013-10-20 21:25:00,83.8,77.0,29.88,NE,54,6.0,10.0,80,0.00,,,0.00,VWS V14.01,2013-10-21 03:25:00,
2013-10-20 21:30:00,83.7,77.2,29.88,NE,53,6.0,10.0,81,0.00,,,0.00,VWS V14.01,2013-10-21 03:30:00,
2013-10-20 21:35:00,83.6,77.2,29.88,ENE,70,6.0,7.0,81,0.00,,,0.00,VWS V14.01,2013-10-21 03:35:00,
2013-10-20 21:40:00,83.5,77.1,29.88,ENE,67,4.0,10.0,81,0.00,,,0.00,VWS V14.01,2013-10-21 03:40:00,
2013-10-20 21:45:00,83.5,77.4,29.88,NE,53,4.0,10.0,82,0.00,,,0.00,VWS V14.01,2013-10-21 03:45:00,
2013-10-20 21:50:00,83.5,77.4,29.88,NE,51,11.0,11.0,82,0.00,,,0.00,VWS V14.01,2013-10-21 03:50:00,
2013-10-20 21:55:00,83.5,77.4,29.88,NE,56,5.0,11.0,82,0.00,,,0.00,VWS V14.01,2013-10-21 03:55:00,
2013-10-20 22:00:00,83.5,77.4,29.88,NE,49,3.0,11.0,82,0.00,,,0.00,VWS V14.01,2013-10-21 04:00:00,
2013-10-20 22:01:00,83.5,77.4,29.88,North,4,8.0,8.0,82,0.00,,,0.00,VWS V14.01,2013-10-21 04:01:00,
2013-10-20 22:06:00,83.4,77.3,29.88,NE,52,1.0,9.0,82,0.00,,,0.00,VWS V14.01,2013-10-21 04:06:00,
2013-10-20 22:11:00,83.4,77.3,29.87,NE,49,6.0,10.0,82,0.00,,,0.00,VWS V14.01,2013-10-21 04:11:00,
2013-10-20 22:16:00,83.5,77.4,29.87,NNE,32,0.0,10.0,82,0.00,,,0.00,VWS V14.01,2013-10-21 04:16:00,
2013-10-20 22:21:00,83.5,77.4,29.87,East,82,1.0,10.0,82,0.00,,,0.00,VWS V14.01,2013-10-21 04:21:00,
2013-10-20 22:26:00,83.4,77.3,29.87,NE,35,3.0,10.0,82,0.00,,,0.00,VWS V14.01,2013-10-21 04:26:00,
2013-10-20 22:30:00,83.5,77.8,29.87,NE,54,4.0,10.0,83,0.00,,,0.00,VWS V15.00,2013-10-21 04:30:00,
2013-10-20 22:31:00,83.5,77.8,29.87,NE,46,4.0,7.0,83,0.00,,,0.00,VWS V14.01,2013-10-21 04:31:00,
2013-10-20 22:36:00,83.6,77.5,29.87,NE,37,5.0,10.0,82,0.00,,,0.00,VWS V14.01,2013-10-21 04:36:00,
2013-10-20 22:41:00,83.7,77.6,29.87,NE,56,3.0,10.0,82,0.00,,,0.00,VWS V14.01,2013-10-21 04:41:00,
2013-10-20 22:46:00,83.7,78.0,29.87,ENE,63,4.0,10.0,83,0.00,,,0.00,VWS V14.01,2013-10-21 04:46:00,
2013-10-20 22:51:00,83.7,78.0,29.87,ENE,75,4.0,10.0,83,0.00,,,0.00,VWS V14.01,2013-10-21 04:51:00,
2013-10-20 22:56:00,83.6,77.9,29.87,ENE,63,2.0,10.0,83,0.00,,,0.00,VWS V14.01,2013-10-21 04:56:00,
2013-10-20 23:00:00,83.6,77.9,29.87,NE,41,2.0,10.0,83,0.00,,,0.00,VWS V15.00,2013-10-21 05:00:00,
2013-10-20 23:01:00,83.6,77.9,29.86,NE,56,4.0,6.0,83,0.00,,,0.00,VWS V14.01,2013-10-21 05:01:00,
2013-10-20 23:06:00,83.6,77.5,29.87,ENE,58,6.0,7.0,82,0.00,,,0.00,VWS V14.01,2013-10-21 05:06:00,
2013-10-20 23:11:00,83.7,77.2,29.86,ENE,76,2.0,9.0,81,0.00,,,0.00,VWS V14.01,2013-10-21 05:11:00,
2013-10-20 23:16:00,83.8,77.0,29.86,ENE,68,4.0,10.0,80,0.00,,,0.00,VWS V14.01,2013-10-21 05:16:00,
2013-10-20 23:21:00,83.8,77.0,29.86,NE,54,2.0,10.0,80,0.00,,,0.00,VWS V14.01,2013-10-21 05:21:00,
2013-10-20 23:26:00,83.8,77.3,29.86,ENE,67,3.0,10.0,81,0.00,,,0.00,VWS V14.01,2013-10-21 05:26:00,
2013-10-20 23:30:00,83.8,77.0,29.86,NE,46,5.0,10.0,80,0.00,,,0.00,VWS V15.00,2013-10-21 05:30:00,
2013-10-20 23:31:00,83.9,76.7,29.86,NE,34,3.0,7.0,79,0.00,,,0.00,VWS V14.01,2013-10-21 05:31:00,
2013-10-20 23:36:00,83.9,76.7,29.86,NE,53,4.0,9.0,79,0.00,,,0.00,VWS V14.01,2013-10-21 05:36:00,
2013-10-20 23:41:00,84.0,77.2,29.86,ENE,59,3.0,9.0,80,0.00,,,0.00,VWS V14.01,2013-10-21 05:41:00,
2013-10-20 23:46:00,83.9,77.1,29.86,ENE,64,6.0,9.0,80,0.00,,,0.00,VWS V14.01,2013-10-21 05:46:00,
2013-10-20 23:51:00,83.9,77.1,29.86,ENE,65,2.0,12.0,80,0.00,,,0.00,VWS V14.01,2013-10-21 05:51:00,
2013-10-20 23:56:00,83.9,77.4,29.86,NE,45,2.0,12.0,81,0.00,,,0.00,VWS V14.01,2013-10-21 05:56:00,